JD,Date,Time,Lat,Long,"xCO2,w","xCO2,a",EqTemp,Pressure,SST(TSG),Sal(TSG),"fCO2w,eq","fCO2w,in situ",fCO2a,dfCO2
193.011,07/12/98,00:16:24,25.493,-80.041,431.54,367.66,31.10,1012.77,31.05,34.58,411.26,410.52,350.50,60.02
193.014,07/12/98,00:20:50,25.480,-80.041,435.98,367.66,31.09,1012.80,31.04,34.67,415.51,414.76,350.50,64.27
193.018,07/12/98,00:25:20,25.466,-80.041,438.17,367.66,31.07,1012.77,31.02,34.69,417.61,416.85,350.50,66.36
193.021,07/12/98,00:29:50,25.448,-80.041,440.27,367.66,31.04,1012.85,30.99,34.72,419.68,418.92,350.50,68.42
193.032,07/12/98,00:46:22,25.389,-80.041,442.57,367.66,31.00,1012.85,30.95,34.83,421.91,421.14,350.50,70.64
193.035,07/12/98,00:50:50,25.375,-80.041,443.91,367.66,30.98,1012.99,30.93,34.85,423.28,422.50,350.50,72.01
193.038,07/12/98,00:55:20,25.358,-80.045,442.40,367.66,30.92,1012.96,30.87,34.92,421.89,421.11,350.50,70.61
193.042,07/12/98,00:59:50,25.345,-80.051,439.44,367.66,30.90,1013.10,30.85,34.96,419.15,418.36,350.50,67.87
193.053,07/12/98,01:16:24,25.289,-80.079,438.09,368.82,30.93,1013.20,30.88,35.01,417.87,417.10,351.81,65.29
193.056,07/12/98,01:20:50,25.276,-80.086,439.32,368.82,30.94,1013.25,30.89,35.00,419.06,418.28,351.81,66.48
193.059,07/12/98,01:25:20,25.263,-80.092,440.03,368.82,30.97,1013.29,30.92,35.00,419.72,418.95,351.81,67.14
193.062,07/12/98,01:29:50,25.246,-80.100,440.33,368.82,30.96,1013.25,30.91,34.95,420.00,419.22,351.81,67.42
193.074,07/12/98,01:46:22,25.190,-80.127,440.31,368.82,30.98,1013.18,30.93,34.91,419.93,419.15,351.81,67.35
193.077,07/12/98,01:50:50,25.176,-80.133,442.00,368.82,30.99,1013.12,30.94,34.94,421.51,420.73,351.81,68.92
193.080,07/12/98,01:55:20,25.163,-80.139,442.34,368.82,31.01,1013.20,30.96,35.02,421.84,421.07,351.81,69.26
193.083,07/12/98,01:59:50,25.146,-80.146,441.59,368.82,31.00,1013.32,30.95,35.04,421.19,420.42,351.81,68.61
193.095,07/12/98,02:16:24,25.088,-80.173,439.39,368.34,30.91,1013.69,30.86,34.97,419.35,418.56,351.81,66.75
193.098,07/12/98,02:20:50,25.074,-80.179,437.33,368.34,30.85,1013.74,30.80,35.05,417.46,416.68,351.81,64.86
193.101,07/12/98,02:25:20,25.061,-80.185,435.12,368.34,30.77,1013.71,30.72,34.98,415.43,414.63,351.81,62.82
193.104,07/12/98,02:29:50,25.043,-80.194,431.94,368.34,30.73,1013.67,30.67,34.85,412.42,411.63,351.81,59.81
193.116,07/12/98,02:46:22,24.989,-80.226,422.46,368.34,30.59,1014.25,30.54,34.66,403.75,402.95,351.81,51.13
193.119,07/12/98,02:50:50,24.980,-80.240,420.16,368.34,30.59,1014.22,30.53,34.65,401.54,400.74,351.81,48.93
193.122,07/12/98,02:55:20,24.972,-80.254,419.94,368.34,30.61,1013.95,30.56,34.77,401.19,400.40,351.81,48.59
193.125,07/12/98,02:59:50,24.961,-80.272,421.24,368.34,30.60,1013.87,30.55,34.73,402.41,401.62,351.81,49.80
193.136,07/12/98,03:16:24,24.923,-80.332,425.55,367.95,30.81,1014.13,30.76,34.87,406.43,405.66,351.31,54.35
193.139,07/12/98,03:20:50,24.914,-80.345,429.41,367.95,30.87,1014.06,30.82,34.88,410.03,409.26,351.31,57.94
193.143,07/12/98,03:25:20,24.905,-80.359,432.40,367.95,30.87,1014.06,30.82,34.95,412.88,412.10,351.31,60.78
193.146,07/12/98,03:29:50,24.894,-80.375,434.49,367.95,30.90,1014.03,30.84,35.02,414.84,414.06,351.31,62.74
193.157,07/12/98,03:46:22,24.854,-80.431,439.47,367.95,30.92,1013.98,30.87,35.03,419.53,418.75,351.31,67.44
193.160,07/12/98,03:50:50,24.844,-80.445,442.36,367.95,30.91,1013.97,30.86,34.98,422.30,421.51,351.31,70.20
193.163,07/12/98,03:55:20,24.835,-80.458,444.94,367.95,30.91,1014.00,30.86,34.94,424.77,423.98,351.31,72.66
193.167,07/12/98,03:59:50,24.823,-80.475,448.38,367.95,30.84,1014.20,30.79,34.97,428.23,427.42,351.31,76.10
193.178,07/12/98,04:16:24,24.784,-80.532,437.07,368.76,30.74,1013.81,30.69,35.03,417.37,416.57,351.87,64.70
193.181,07/12/98,04:20:50,24.776,-80.546,429.67,368.76,30.77,1013.64,30.72,34.98,410.20,409.41,351.87,57.55
193.184,07/12/98,04:25:20,24.769,-80.561,425.36,368.76,30.79,1013.66,30.73,34.92,406.07,405.29,351.87,53.43
193.187,07/12/98,04:29:50,24.760,-80.580,423.77,368.76,30.81,1013.61,30.76,34.86,404.50,403.73,351.87,51.87
193.199,07/12/98,04:46:22,24.726,-80.639,438.76,368.76,31.10,1013.87,31.05,35.12,418.62,417.87,351.87,66.00
193.202,07/12/98,04:50:50,24.717,-80.651,445.00,368.76,30.86,1013.76,30.81,35.17,424.80,424.00,351.87,72.13
193.205,07/12/98,04:55:20,24.707,-80.663,441.67,368.76,30.69,1013.64,30.64,35.33,421.74,420.92,351.87,69.06
193.208,07/12/98,04:59:50,24.696,-80.678,432.92,368.76,30.60,1013.56,30.55,35.30,413.45,412.63,351.87,60.76
193.220,07/12/98,05:16:24,24.657,-80.727,421.96,369.07,30.69,1013.45,30.63,34.60,402.84,402.06,352.35,49.71
193.223,07/12/98,05:20:50,24.648,-80.739,419.76,369.07,30.64,1013.48,30.58,34.55,400.80,400.02,352.35,47.66
193.226,07/12/98,05:25:20,24.639,-80.750,418.53,369.07,30.59,1013.38,30.53,34.58,399.64,398.85,352.35,46.49
193.229,07/12/98,05:29:50,24.627,-80.765,416.87,369.07,30.59,1013.27,30.53,34.66,398.01,397.22,352.35,44.86
193.241,07/12/98,05:46:22,24.597,-80.819,414.17,369.07,30.65,1013.22,30.60,34.50,395.34,394.57,352.35,42.22
193.244,07/12/98,05:50:50,24.590,-80.833,414.20,369.07,30.65,1013.22,30.60,34.45,395.37,394.60,352.35,42.24
193.247,07/12/98,05:55:20,24.582,-80.849,415.95,369.07,30.63,1013.24,30.58,34.42,397.07,396.29,352.35,43.94
193.250,07/12/98,05:59:50,24.575,-80.863,418.36,369.07,30.63,1013.14,30.58,34.38,399.33,398.54,352.35,46.19
193.261,07/12/98,06:16:24,24.547,-80.919,419.43,369.18,30.57,1012.96,30.51,34.40,400.35,399.55,352.55,47.00
193.264,07/12/98,06:20:50,24.540,-80.932,415.98,369.18,30.56,1012.78,30.51,34.39,396.98,396.19,352.55,43.64
193.268,07/12/98,06:25:20,24.531,-80.949,413.00,369.18,30.51,1012.86,30.45,34.40,394.22,393.43,352.55,40.88
193.271,07/12/98,06:29:50,24.524,-80.962,412.02,369.18,30.52,1012.82,30.47,34.41,393.26,392.47,352.55,39.92
193.282,07/12/98,06:46:22,24.492,-81.015,410.40,369.18,30.36,1012.73,30.31,34.71,391.84,391.03,352.55,38.48
193.285,07/12/98,06:50:50,24.484,-81.028,410.58,369.18,30.27,1012.65,30.22,34.95,392.07,391.25,352.55,38.70
193.288,07/12/98,06:55:20,24.475,-81.045,410.55,369.18,30.27,1012.61,30.21,35.36,392.03,391.20,352.55,38.65
193.292,07/12/98,06:59:50,24.467,-81.058,410.02,369.18,30.08,1012.73,30.02,35.33,391.76,390.91,352.55,38.36
193.303,07/12/98,07:16:24,24.437,-81.110,408.91,369.02,29.74,1012.62,29.67,35.65,390.99,390.09,352.62,37.47
193.306,07/12/98,07:20:50,24.430,-81.122,408.67,369.02,29.73,1012.53,29.67,35.91,390.72,389.83,352.62,37.21
193.309,07/12/98,07:25:20,24.422,-81.138,408.48,369.02,29.78,1012.56,29.72,36.11,390.51,389.62,352.62,37.00
193.312,07/12/98,07:29:50,24.415,-81.151,410.67,369.02,29.81,1012.49,29.75,36.13,392.55,391.66,352.62,39.04
193.324,07/12/98,07:46:22,24.387,-81.203,413.03,369.02,30.01,1012.49,29.95,35.90,394.61,393.75,352.62,41.13
193.327,07/12/98,07:50:50,24.380,-81.216,413.49,369.02,30.04,1012.41,29.98,35.83,394.99,394.13,352.62,41.51
193.330,07/12/98,07:55:20,24.372,-81.231,413.05,369.02,30.12,1012.31,30.06,35.75,394.45,393.60,352.62,40.98
193.333,07/12/98,07:59:50,24.366,-81.244,414.29,369.02,30.18,1012.36,30.12,35.64,395.59,394.75,352.62,42.13
193.345,07/12/98,08:16:24,24.333,-81.297,416.54,368.66,30.30,1012.68,30.24,35.51,397.75,396.92,352.10,44.82
193.348,07/12/98,08:20:50,24.325,-81.309,417.24,368.66,30.30,1012.70,30.24,35.46,398.42,397.59,352.10,45.50
193.351,07/12/98,08:25:20,24.316,-81.325,416.77,368.66,30.31,1012.83,30.25,35.38,398.02,397.19,352.10,45.10
193.354,07/12/98,08:29:50,24.309,-81.339,416.52,368.66,30.27,1012.80,30.21,35.27,397.81,396.97,352.10,44.88
193.366,07/12/98,08:46:22,24.284,-81.395,419.06,368.66,30.22,1012.52,30.16,35.22,400.17,399.33,352.10,47.23
193.369,07/12/98,08:50:50,24.278,-81.409,420.58,368.66,30.26,1012.58,30.20,35.57,401.61,400.76,352.10,48.67
193.372,07/12/98,08:55:20,24.269,-81.425,421.46,368.66,30.22,1012.68,30.17,35.86,402.52,401.67,352.10,49.58
193.375,07/12/98,08:59:50,24.262,-81.437,421.81,368.66,30.20,1012.75,30.15,35.89,402.91,402.06,352.10,49.96
193.386,07/12/98,09:16:24,24.232,-81.494,421.67,368.29,30.34,1012.96,30.29,35.80,402.72,401.89,351.97,49.92
193.389,07/12/98,09:20:50,24.225,-81.508,422.49,368.29,30.35,1012.82,30.29,35.71,403.44,402.60,351.97,50.64
193.393,07/12/98,09:25:20,24.216,-81.526,423.78,368.29,30.35,1012.78,30.29,35.57,404.66,403.82,351.97,51.85
193.396,07/12/98,09:29:50,24.209,-81.540,423.31,368.29,30.16,1012.83,30.10,35.40,404.42,403.55,351.97,51.59
193.407,07/12/98,09:46:22,24.181,-81.596,419.63,368.29,30.00,1012.85,29.94,35.22,401.07,400.19,351.97,48.22
193.410,07/12/98,09:50:50,24.175,-81.609,419.84,368.29,30.05,1012.76,29.99,35.34,401.18,400.31,351.97,48.34
193.413,07/12/98,09:55:20,24.167,-81.626,417.89,368.29,30.06,1012.84,30.00,35.50,399.34,398.48,351.97,46.51
193.417,07/12/98,09:59:50,24.160,-81.639,416.65,368.29,30.08,1012.88,30.02,35.67,398.15,397.29,351.97,45.33
193.428,07/12/98,10:16:24,24.132,-81.695,422.42,368.96,30.11,1013.00,30.05,35.08,403.68,402.81,352.64,50.17
193.431,07/12/98,10:20:50,24.126,-81.708,423.87,368.96,30.14,1012.98,30.08,35.50,405.04,404.17,352.64,51.53
193.434,07/12/98,10:25:20,24.117,-81.724,422.77,368.96,30.15,1012.93,30.09,35.59,403.95,403.08,352.64,50.44
193.437,07/12/98,10:29:50,24.109,-81.737,421.70,368.96,30.10,1013.01,30.04,35.49,403.02,402.15,352.64,49.50
193.449,07/12/98,10:46:22,24.080,-81.791,421.17,368.96,29.79,1012.71,29.73,35.09,402.68,401.77,352.64,49.13
193.452,07/12/98,10:50:50,24.073,-81.803,417.48,368.96,29.69,1012.73,29.62,35.16,399.27,398.35,352.64,45.71
193.455,07/12/98,10:55:20,24.065,-81.819,412.42,368.96,29.66,1012.84,29.60,35.50,394.50,393.59,352.64,40.94
193.458,07/12/98,10:59:50,24.058,-81.832,409.03,368.96,29.66,1012.74,29.60,35.98,391.22,390.31,352.64,37.67
193.470,07/12/98,11:16:24,24.028,-81.885,418.56,369.20,29.96,1013.15,29.90,36.26,400.21,399.33,353.10,46.23
193.473,07/12/98,11:20:50,24.021,-81.897,423.53,369.20,29.94,1013.24,29.88,36.26,405.03,404.14,353.10,51.04
193.476,07/12/98,11:25:20,24.011,-81.912,425.33,369.20,29.91,1013.16,29.85,36.26,406.74,405.83,353.10,52.73
193.479,07/12/98,11:29:50,24.004,-81.924,426.76,369.20,29.92,1013.13,29.86,36.26,408.08,407.18,353.10,54.08
193.491,07/12/98,11:46:22,23.974,-81.975,426.91,369.20,29.95,1013.50,29.90,36.34,408.35,407.46,353.10,54.36
193.494,07/12/98,11:50:50,23.966,-81.986,425.79,369.20,29.82,1013.66,29.76,36.33,407.48,406.56,353.10,53.46
193.497,07/12/98,11:55:20,23.957,-82.001,423.21,369.20,29.91,1013.82,29.85,36.29,404.99,404.09,353.10,50.99
193.500,07/12/98,11:59:50,23.950,-82.013,423.63,369.20,29.87,1013.90,29.81,35.95,405.45,404.55,353.10,51.45
193.511,07/12/98,12:16:24,23.919,-82.062,413.10,368.75,29.61,1014.09,29.55,36.15,395.71,394.79,353.35,41.44
193.514,07/12/98,12:20:50,23.912,-82.074,408.25,368.75,29.55,1014.05,29.49,36.14,391.10,390.18,353.35,36.83
193.518,07/12/98,12:25:20,23.904,-82.089,405.88,368.75,29.46,1014.00,29.40,36.18,388.90,387.97,353.35,34.62
193.521,07/12/98,12:29:50,23.898,-82.101,403.67,368.75,29.48,1014.02,29.41,36.17,386.77,385.85,353.35,32.50
193.532,07/12/98,12:46:22,23.871,-82.153,401.94,368.75,29.42,1014.20,29.35,36.29,385.25,384.32,353.35,30.97
193.535,07/12/98,12:50:50,23.865,-82.166,401.05,368.75,29.42,1014.33,29.35,36.29,384.44,383.52,353.35,30.17
193.538,07/12/98,12:55:20,23.858,-82.181,400.66,368.75,29.42,1014.32,29.35,36.30,384.07,383.14,353.35,29.79
193.542,07/12/98,12:59:50,23.853,-82.194,400.72,368.75,29.42,1014.40,29.36,36.20,384.15,383.22,353.35,29.87
193.553,07/12/98,13:16:24,23.827,-82.248,403.33,368.99,29.40,1014.36,29.31,36.32,386.67,385.34,353.70,31.65
193.556,07/12/98,13:20:50,23.821,-82.261,402.33,368.99,29.34,1014.38,29.30,36.32,385.73,385.13,353.70,31.43
193.559,07/12/98,13:25:20,23.812,-82.277,399.96,368.99,29.37,1014.42,29.30,36.32,383.47,382.57,353.70,28.87
193.562,07/12/98,13:29:50,23.806,-82.289,398.91,368.99,29.36,1014.24,29.31,36.31,382.39,381.62,353.70,27.92
193.574,07/12/98,13:46:22,23.779,-82.344,399.64,368.99,29.46,1014.33,29.40,36.33,383.05,382.23,353.70,28.53
193.577,07/12/98,13:50:50,23.773,-82.357,399.53,368.99,29.45,1014.43,29.39,36.33,382.99,382.15,353.70,28.45
193.580,07/12/98,13:55:20,23.764,-82.373,399.28,368.99,29.43,1014.38,29.33,36.32,382.78,381.47,353.70,27.77
193.583,07/12/98,13:59:50,23.758,-82.385,398.49,368.99,29.39,1014.57,29.32,36.32,382.10,381.11,353.70,27.41
193.595,07/12/98,14:16:24,23.741,-82.416,398.58,369.20,29.47,1014.29,29.40,36.32,382.01,380.99,353.85,27.14
193.598,07/12/98,14:20:50,23.734,-82.428,398.79,369.20,29.47,1014.22,29.40,36.31,382.19,381.23,353.85,27.38
193.601,07/12/98,14:25:20,23.725,-82.444,398.64,369.20,29.44,1014.16,29.42,36.28,381.99,381.76,353.85,27.91
193.604,07/12/98,14:29:50,23.718,-82.457,398.19,369.20,29.46,1014.15,29.43,36.26,381.55,381.21,353.85,27.36
193.616,07/12/98,14:46:22,23.688,-82.513,396.62,369.20,29.51,1014.57,29.51,36.19,380.14,380.13,353.85,26.28
193.619,07/12/98,14:50:50,23.681,-82.526,395.85,369.20,29.58,1014.54,29.59,36.20,379.33,379.34,353.85,25.49
193.622,07/12/98,14:55:20,23.672,-82.542,395.43,369.20,29.62,1014.69,29.60,36.19,378.97,378.61,353.85,24.76
193.625,07/12/98,14:59:50,23.665,-82.556,395.36,369.20,29.63,1014.73,29.64,36.23,378.88,379.10,353.85,25.25
193.636,07/12/98,15:16:24,23.635,-82.614,396.62,369.29,29.70,1014.83,29.70,36.28,380.07,379.99,353.86,26.13
193.639,07/12/98,15:20:50,23.628,-82.627,396.97,369.29,29.74,1014.77,29.73,36.28,380.36,380.22,353.86,26.37
193.643,07/12/98,15:25:20,23.619,-82.645,397.31,369.29,29.75,1014.91,29.73,36.29,380.74,380.38,353.86,26.52
193.646,07/12/98,15:29:50,23.612,-82.658,397.46,369.29,29.76,1014.85,29.72,36.29,380.87,380.25,353.86,26.40
193.657,07/12/98,15:46:22,23.583,-82.718,398.43,369.29,29.77,1014.71,29.75,36.30,381.71,381.45,353.86,27.59
193.660,07/12/98,15:50:50,23.576,-82.732,398.98,369.29,29.80,1014.58,29.71,36.28,382.22,380.97,353.86,27.11
193.663,07/12/98,15:55:20,23.567,-82.749,399.27,369.29,29.72,1014.54,29.66,36.20,382.54,381.69,353.86,27.83
193.667,07/12/98,15:59:50,23.560,-82.763,398.13,369.29,29.78,1014.44,29.69,36.27,381.38,380.08,353.86,26.22
193.678,07/12/98,16:16:24,23.532,-82.823,399.49,369.23,29.77,1014.35,29.73,36.31,382.61,382.11,353.52,28.59
193.681,07/12/98,16:20:50,23.525,-82.837,399.79,369.23,29.78,1014.23,29.73,36.29,382.85,382.19,353.52,28.67
193.684,07/12/98,16:25:20,23.516,-82.855,399.92,369.23,29.69,1014.21,29.71,36.26,382.99,383.29,353.52,29.77
193.687,07/12/98,16:29:50,23.509,-82.869,399.03,369.23,29.76,1014.12,29.73,36.29,382.08,381.61,353.52,28.09
193.699,07/12/98,16:46:22,23.477,-82.927,399.67,369.23,29.82,1013.96,29.78,36.32,382.59,381.95,353.52,28.43
193.702,07/12/98,16:50:50,23.470,-82.940,399.47,369.23,29.83,1013.84,29.77,36.32,382.35,381.53,353.52,28.00
193.705,07/12/98,16:55:20,23.460,-82.958,399.79,369.23,29.84,1013.87,29.78,36.32,382.66,381.85,353.52,28.32
193.708,07/12/98,16:59:50,23.453,-82.971,400.01,369.23,29.83,1013.69,29.79,36.32,382.80,382.22,353.52,28.70
193.720,07/12/98,17:16:24,23.421,-83.030,401.35,369.08,29.96,1013.38,29.91,36.33,383.85,383.06,353.19,29.87
193.723,07/12/98,17:20:50,23.413,-83.044,402.18,369.08,29.96,1013.36,29.89,36.33,384.65,383.71,353.19,30.52
193.726,07/12/98,17:25:20,23.404,-83.062,402.29,369.08,29.95,1013.45,29.90,36.33,384.78,384.07,353.19,30.88
193.729,07/12/98,17:29:50,23.397,-83.076,402.24,369.08,29.95,1013.56,29.86,36.32,384.81,383.43,353.19,30.24
193.741,07/12/98,17:46:22,23.366,-83.136,401.52,369.08,29.86,1013.84,29.84,36.32,384.24,383.96,353.19,30.77
193.744,07/12/98,17:50:50,23.359,-83.151,400.85,369.08,29.90,1013.86,29.86,36.33,383.60,383.00,353.19,29.81
193.747,07/12/98,17:55:20,23.350,-83.169,401.12,369.08,29.90,1013.85,29.87,36.32,383.84,383.37,353.19,30.18
193.750,07/12/98,17:59:50,23.343,-83.184,401.52,369.08,29.92,1013.70,29.87,36.31,384.16,383.53,353.19,30.34
193.761,07/12/98,18:16:24,23.310,-83.246,402.42,368.96,29.96,1013.75,29.90,36.33,385.03,384.13,352.93,31.20
193.764,07/12/98,18:20:50,23.302,-83.260,402.58,368.96,29.95,1013.76,29.89,36.33,385.19,384.36,352.93,31.43
193.768,07/12/98,18:25:20,23.291,-83.278,402.38,368.96,29.95,1013.76,29.88,36.32,385.00,384.03,352.93,31.10
193.771,07/12/98,18:29:50,23.283,-83.292,402.37,368.96,29.94,1013.68,29.88,36.31,384.97,384.13,352.93,31.20
193.782,07/12/98,18:46:22,23.246,-83.352,401.40,368.96,29.97,1013.62,29.92,36.25,383.97,383.26,352.93,30.33
193.785,07/12/98,18:50:50,23.237,-83.366,400.80,368.96,29.99,1013.66,29.93,36.27,383.41,382.48,352.93,29.55
193.788,07/12/98,18:55:20,23.227,-83.384,400.45,368.96,29.95,1013.67,29.90,36.28,383.10,382.32,352.93,29.39
193.792,07/12/98,18:59:50,23.219,-83.399,400.60,368.96,29.95,1013.70,29.88,36.29,383.28,382.30,352.93,29.37
193.803,07/12/98,19:16:24,23.187,-83.463,402.26,369.06,29.91,1013.62,29.85,36.32,384.86,383.97,353.07,30.90
193.806,07/12/98,19:20:50,23.179,-83.477,402.59,369.06,29.92,1013.58,29.86,36.31,385.15,384.34,353.07,31.27
193.809,07/12/98,19:25:20,23.169,-83.496,402.57,369.06,29.92,1013.55,29.88,36.32,385.10,384.47,353.07,31.40
193.812,07/12/98,19:29:50,23.161,-83.511,402.55,369.06,29.92,1013.63,29.86,36.31,385.13,384.36,353.07,31.29
193.824,07/12/98,19:46:22,23.128,-83.573,402.51,369.06,29.90,1013.43,29.83,36.29,385.04,384.09,353.07,31.02
193.827,07/12/98,19:50:50,23.120,-83.588,402.55,369.06,29.89,1013.37,29.86,36.23,385.04,384.57,353.07,31.50
193.830,07/12/98,19:55:20,23.112,-83.607,402.22,369.06,29.91,1013.27,29.86,36.25,384.68,383.84,353.07,30.77
193.833,07/12/98,19:59:50,23.104,-83.622,402.47,369.06,29.91,1013.32,29.84,36.19,384.95,383.93,353.07,30.86
193.845,07/12/98,20:16:24,23.068,-83.684,402.54,368.54,29.93,1013.03,29.90,36.25,384.85,384.39,352.29,32.10
193.848,07/12/98,20:20:50,23.060,-83.698,402.86,368.54,29.95,1012.92,29.90,36.18,385.11,384.37,352.29,32.08
193.851,07/12/98,20:25:20,23.050,-83.717,402.64,368.54,29.97,1012.95,29.95,36.25,384.86,384.59,352.29,32.30
193.854,07/12/98,20:29:50,23.042,-83.732,402.90,368.54,29.98,1012.98,29.92,36.28,385.15,384.40,352.29,32.11
193.866,07/12/98,20:46:22,23.009,-83.794,402.74,368.54,29.96,1012.90,29.91,36.26,384.98,384.26,352.29,31.97
193.869,07/12/98,20:50:50,23.002,-83.809,402.70,368.54,29.99,1012.88,29.94,36.26,384.91,384.16,352.29,31.88
193.872,07/12/98,20:55:20,22.992,-83.827,402.22,368.54,29.99,1012.89,29.92,36.25,384.46,383.60,352.29,31.31
193.875,07/12/98,20:59:50,22.985,-83.842,402.32,368.54,29.99,1012.94,29.93,36.25,384.57,383.83,352.29,31.54
193.886,07/12/98,21:16:24,22.951,-83.903,403.13,368.35,30.04,1012.69,29.97,36.24,385.21,384.20,351.93,32.28
193.889,07/12/98,21:20:50,22.943,-83.918,402.79,368.35,30.02,1012.70,29.96,36.24,384.90,384.09,351.93,32.16
193.893,07/12/98,21:25:20,22.933,-83.936,402.56,368.35,30.03,1012.61,29.96,36.25,384.65,383.71,351.93,31.78
193.896,07/12/98,21:29:50,22.924,-83.950,402.66,368.35,30.00,1012.55,29.94,36.24,384.74,383.86,351.93,31.94
193.907,07/12/98,21:46:22,22.889,-84.011,402.71,368.35,30.05,1012.67,30.03,36.27,384.75,384.46,351.93,32.53
193.910,07/12/98,21:50:50,22.880,-84.025,402.95,368.35,30.08,1012.69,30.00,36.28,385.01,383.90,351.93,31.97
193.913,07/12/98,21:55:20,22.870,-84.043,403.55,368.35,30.06,1012.76,30.00,36.28,385.61,384.72,351.93,32.79
193.917,07/12/98,21:59:50,22.862,-84.057,403.70,368.35,30.00,1012.81,29.89,36.29,385.89,384.24,351.93,32.31
193.928,07/12/98,22:16:24,22.828,-84.116,403.83,368.40,29.88,1012.97,29.82,36.29,386.13,385.22,352.18,33.04
193.931,07/12/98,22:20:50,22.819,-84.130,402.96,368.40,29.88,1013.07,29.83,36.29,385.33,384.56,352.18,32.38
193.934,07/12/98,22:25:20,22.809,-84.148,402.76,368.40,29.89,1013.17,29.82,36.29,385.18,384.22,352.18,32.04
193.937,07/12/98,22:29:50,22.801,-84.162,402.43,368.40,29.89,1013.09,29.87,36.30,384.80,384.48,352.18,32.30
193.949,07/12/98,22:46:22,22.766,-84.222,404.15,368.40,29.91,1013.02,29.84,36.30,386.44,385.51,352.18,33.33
193.952,07/12/98,22:50:50,22.758,-84.236,403.38,368.40,29.89,1012.96,29.85,36.31,385.68,384.98,352.18,32.80
193.955,07/12/98,22:55:20,22.748,-84.254,403.35,368.40,29.92,1012.98,29.83,36.30,385.67,384.36,352.18,32.18
193.958,07/12/98,22:59:50,22.740,-84.268,403.46,368.40,29.90,1013.03,29.83,36.30,385.79,384.88,352.18,32.70
193.970,07/12/98,23:16:24,22.705,-84.328,403.55,368.91,29.85,1013.14,29.80,36.30,385.96,385.14,352.94,32.20
193.973,07/12/98,23:20:50,22.696,-84.341,403.08,368.91,29.82,1013.22,29.81,36.30,385.53,385.31,352.94,32.37
193.976,07/12/98,23:25:20,22.685,-84.358,402.72,368.91,29.88,1013.28,29.84,36.31,385.17,384.65,352.94,31.71
193.979,07/12/98,23:29:50,22.676,-84.372,403.35,368.91,29.89,1013.26,29.82,36.31,385.79,384.80,352.94,31.86
193.991,07/12/98,23:46:22,22.641,-84.432,402.64,368.91,29.79,1013.36,29.74,36.31,385.22,384.51,352.94,31.58
193.994,07/12/98,23:50:50,22.632,-84.446,402.30,368.91,29.85,1013.32,29.89,36.31,384.74,385.29,352.94,32.36
193.997,07/12/98,23:55:20,22.621,-84.464,403.14,368.91,29.84,1013.36,29.76,36.31,385.69,384.41,352.94,31.48
194.000,07/12/98,23:59:50,22.613,-84.478,403.82,368.91,29.83,1013.28,29.74,36.31,386.33,385.03,352.94,32.09
194.011,07/13/98,00:16:24,22.576,-84.539,403.89,368.34,29.78,1013.20,29.65,36.28,386.44,384.63,352.36,32.27
194.014,07/13/98,00:20:50,22.569,-84.554,403.28,368.34,29.69,1013.15,29.62,36.27,385.86,384.85,352.36,32.49
194.018,07/13/98,00:25:20,22.559,-84.573,401.93,368.34,29.70,1013.15,29.64,36.27,384.56,383.60,352.36,31.23
194.021,07/13/98,00:29:50,22.551,-84.588,401.51,368.34,29.72,1013.08,29.62,36.26,384.15,382.70,352.36,30.33
194.032,07/13/98,00:46:22,22.518,-84.652,402.31,368.34,29.73,1013.17,29.68,36.28,384.89,384.13,352.36,31.76
194.035,07/13/98,00:50:50,22.511,-84.667,-999.99,368.34,29.76,1013.23,29.64,36.26,-999.99,-999.99,352.36,-999.99
194.038,07/13/98,00:55:25,22.501,-84.686,404.44,368.34,29.78,1013.29,29.60,36.24,387.05,384.45,352.36,32.09
194.042,07/13/98,00:59:50,22.493,-84.701,-999.99,368.34,29.72,1013.39,29.61,36.23,-999.99,-999.99,352.36,-999.99
194.053,07/13/98,01:16:24,22.449,-84.756,404.08,369.63,29.64,1013.51,29.56,36.16,386.82,385.70,353.86,31.84
194.056,07/13/98,01:20:50,22.436,-84.768,402.87,369.63,29.57,1013.57,29.53,36.14,385.72,385.08,353.86,31.21
194.059,07/13/98,01:25:20,22.421,-84.782,401.32,369.63,29.61,1013.59,29.61,36.13,384.17,384.12,353.86,30.26
194.062,07/13/98,01:29:50,22.408,-84.794,400.69,369.63,29.66,1013.62,29.62,36.13,383.58,382.95,353.86,29.09
194.074,07/13/98,01:46:22,22.354,-84.843,400.99,369.63,29.62,1013.68,29.57,36.15,383.93,383.22,353.86,29.35
194.077,07/13/98,01:50:50,22.342,-84.855,400.55,369.63,29.63,1013.73,29.62,36.16,383.48,383.42,353.86,29.56
194.080,07/13/98,01:55:20,22.327,-84.870,400.39,369.63,29.68,1013.74,29.67,36.18,383.29,383.05,353.86,29.19
194.083,07/13/98,01:59:50,22.314,-84.882,400.62,369.63,29.72,1013.70,29.64,36.18,383.52,382.36,353.86,28.50
194.095,07/13/98,02:16:24,22.262,-84.933,401.92,369.20,29.64,1013.63,29.51,36.21,384.86,383.00,353.58,29.42
194.098,07/13/98,02:20:50,22.249,-84.945,401.73,369.20,29.54,1013.62,29.50,36.22,384.68,384.20,353.58,30.62
194.101,07/13/98,02:25:20,22.234,-84.961,400.52,369.20,29.57,1013.67,29.53,36.23,383.51,382.84,353.58,29.26
194.104,07/13/98,02:29:50,22.222,-84.973,400.52,369.20,29.63,1013.70,29.56,36.23,383.49,382.51,353.58,28.92
194.116,07/13/98,02:46:22,22.169,-85.023,400.62,369.20,29.62,1013.90,29.59,36.22,383.64,383.15,353.58,29.56
194.119,07/13/98,02:50:50,22.156,-85.035,400.91,369.20,29.58,1013.95,29.59,36.22,383.94,384.05,353.58,30.47
194.122,07/13/98,02:55:20,22.141,-85.050,401.23,369.20,29.66,1013.96,29.58,36.23,384.26,383.13,353.58,29.54
194.125,07/13/98,02:59:50,22.128,-85.062,401.86,369.20,29.58,1014.02,29.50,36.23,384.95,383.87,353.58,30.29
194.136,07/13/98,03:16:24,22.076,-85.112,402.12,369.70,29.65,1014.17,29.49,36.31,385.27,383.01,354.15,28.85
194.139,07/13/98,03:20:50,22.064,-85.123,401.69,369.70,29.56,1014.20,29.49,36.32,384.88,383.83,354.15,29.67
194.143,07/13/98,03:25:20,22.049,-85.138,400.91,369.70,29.57,1014.22,29.53,36.30,384.11,383.43,354.15,29.28